Regional Weather Roundup
Issued by NWS Glasgow, MT

Home | Current Version | Previous Version | Text Only | Print | Product List | Glossary On
Versions: 1 2 3 4 5 6 7 8 9 10 11 12 13 14 15 16 17 18 19 20 21 22 23 24 25 26 27
000
ASUS45 KGGW 251915
RWRGGW
HOURLY REGIONAL WEATHER ROUNDUP FOR NORTHEAST MONTANA
NATIONAL WEATHER SERVICE GLASGOW MONTANA
100 PM MDT THU AUG 25 2016

NOTE: "FAIR" INDICATES FEW OR NO CLOUDS BELOW 12,000 FEET WITH NO
SIGNIFICANT WEATHER AND/OR OBSTRUCTIONS TO VISISBILITY.

NORTHEAST MONTANA


CITY           SKY/WX    TMP DP  RH WIND       PRES   REMARKS
GLASGOW        PTSUNNY   69  41  36 W16       30.18F
PLENTYWOOD       N/A     70  35  27 W9          N/A
WOLF POINT     CLOUDY    71  42  35 NW13      30.18F
JORDAN           N/A     70  39  32 VRB6      30.21F
WINNETT          N/A     71  37  28 SE2         N/A
SIDNEY           N/A     70  41  34 NW10      30.17F
GLENDIVE       MOSUNNY   70  41  34 NW10G17   30.21F
MALTA            N/A     70  42  36 W8          N/A
SCOBEY           N/A     68  38  33 CALM      30.15F

FORT PECK REPORTS


CITY           SKY/WX    TMP DP  RH WIND       PRES   REMARKS
FORT PECK        N/A     68  44  42 S9          N/A
THE PINES        N/A     66  37  34 S5          N/A

SOUTHEAST MONTANA


CITY           SKY/WX    TMP DP  RH WIND       PRES   REMARKS
BILLINGS       MOSUNNY   65  38  36 VRB5      30.25F
MILES CITY     MOSUNNY   67  42  40 SW13G18   30.24F
BAKER          PTSUNNY   62  41  46 NW6       30.24F
LIVINGSTON     SUNNY     65  34  31 MISG      30.24F

CENTRAL MONTANA


CITY           SKY/WX    TMP DP  RH WIND       PRES   REMARKS
HAVRE            N/A    N/A N/A N/A VRB5      30.21F
LEWISTOWN      SUNNY     65  31  28 VRB3      30.25F
GREAT FALLS    CLOUDY    66  37  34 VRB6      30.23F
CUT BANK       CLOUDY    66  33  29 W5        30.24F
HELENA         CLOUDY    67  36  31 CALM      30.23F
BUTTE          SUNNY     61  29  29 CALM      30.26F
BOZEMAN        SUNNY     62  36  37 CALM      30.25F

WESTERN MONTANA


CITY           SKY/WX    TMP DP  RH WIND       PRES   REMARKS
MISSOULA       SUNNY     68  36  30 S6        30.21F
KALISPELL      NOT AVBL

NORTH DAKOTA


CITY           SKY/WX    TMP DP  RH WIND       PRES   REMARKS
WILLISTON      MOSUNNY   74  37  26 W12G18    30.15F
DICKINSON      CLOUDY    63  40  42 NW13G21   30.19F
MINOT          MOSUNNY   72  45  37 W18G26    30.11F
BISMARCK       CLOUDY    67  49  52 W10       30.17F

SOUTHERN SASKATCHEWAN


CITY           SKY/WX    TMP DP  RH WIND       PRES   REMARKS
REGINA         MOSUNNY   70  45  40 N3        30.11F
MOOSE JAW      PTSUNNY   70  50  49 W6        30.12F
ESTEVAN        MOSUNNY   73  43  33 NW12G20   30.12S
SWIFT CURRENT  MOSUNNY   63  52  67 W14       30.16F





USA.gov is the U.S. government's official web portal to all federal, state and local government web resources and services.